Vorticity
nan nan nan nan nan nan nan nan nan nan nan nan nan nan nan nan nan nan nan nan nan nan nan nan nan nan nan nan nan nan nan nan nan nan nan nan nan nan nan nan nan nan nan nan nan nan nan nan nan
nan 5 4 7 3 -0 13 1 9 14 7 -2 6 5 -4 6 13 7 8 8 5 5 7 6 5 4 5 5 5 5 5 5 6 5 5 6 5 5 4 4 5 5 6 6 5 8 7 8 nan
nan 9 9 7 2 12 3 6 7 9 3 8 7 0 7 3 5 10 12 5 5 6 8 6 5 5 5 5 5 4 5 6 5 5 5 6 6 6 5 4 5 6 6 5 5 7 6 4 nan
nan 10 4 2 -3 12 7 10 8 9 7 18 9 1 2 8 17 15 7 4 5 5 7 7 5 5 4 4 4 3 4 6 5 6 6 6 6 5 5 4 5 5 6 6 6 7 6 4 nan
nan 3 6 3 10 6 5 4 8 5 2 9 12 7 4 10 15 10 5 4 4 7 6 5 5 5 4 4 4 5 5 5 6 6 5 5 6 5 5 5 5 5 6 6 6 6 6 4 nan
nan 5 3 9 21 2 5 3 13 9 2 7 8 1 5 10 6 3 5 8 5 7 5 6 4 4 4 5 5 4 7 5 5 6 5 5 6 5 5 6 6 6 6 6 6 6 5 4 nan
nan 5 2 11 10 7 3 6 13 11 4 1 3 12 9 10 6 7 6 5 6 6 6 7 5 3 3 4 4 4 4 5 5 7 5 4 5 5 5 6 6 5 6 6 6 5 4 4 nan
nan 4 9 10 9 13 3 7 9 5 11 12 15 24 15 7 4 5 6 6 10 7 6 6 6 5 4 6 5 4 3 5 5 5 4 5 5 6 6 6 5 5 4 4 4 3 4 4 nan
nan 9 18 10 16 11 7 4 1 6 6 12 19 21 19 7 4 5 4 6 5 7 10 8 6 7 6 6 6 5 6 5 4 5 7 6 7 12 7 5 5 4 4 3 3 3 3 3 nan
nan 4 6 13 10 11 8 12 8 4 -1 0 9 8 8 8 7 4 4 6 6 4 4 8 8 7 5 9 8 5 7 6 7 8 7 6 8 7 9 7 5 4 3 5 5 5 7 6 nan
nan 7 6 8 7 11 5 -0 15 13 4 11 5 5 6 5 5 7 8 8 8 7 6 5 6 6 7 6 8 10 8 8 8 9 7 5 9 5 5 5 6 8 7 5 8 8 11 9 nan
nan 9 8 7 15 8 4 6 11 12 12 11 7 5 4 7 7 5 9 8 8 5 9 7 5 5 6 4 6 8 7 9 11 9 6 6 6 7 7 8 8 6 9 9 7 6 8 8 nan
nan 8 6 10 10 9 10 9 7 6 9 6 5 7 6 4 4 5 5 4 6 6 3 5 6 8 5 5 5 7 7 7 8 10 8 5 5 9 9 6 7 9 8 7 7 9 7 6 nan
nan 9 7 7 7 6 8 2 3 9 6 8 6 3 4 8 8 7 6 4 2 5 10 9 7 8 6 7 7 5 7 10 6 7 8 8 5 5 7 9 8 7 7 8 8 8 7 7 nan
nan 2 4 6 5 6 -4 4 12 10 5 1 7 10 9 6 7 8 10 11 8 9 12 10 9 9 7 6 6 7 6 7 8 11 9 8 7 6 5 5 8 8 6 8 9 8 7 7 nan
nan 4 2 9 5 6 -0 8 10 6 5 5 4 3 5 6 9 7 7 13 9 14 9 6 12 8 7 9 8 6 8 8 7 6 9 8 7 6 7 6 8 7 7 8 8 7 9 9 nan
nan 11 7 7 7 4 8 10 8 6 7 6 5 6 6 6 5 6 5 5 9 7 8 8 8 7 8 8 8 8 6 5 9 8 10 9 9 7 5 6 6 7 8 7 7 8 7 7 nan
nan 5 13 17 5 4 9 7 9 8 7 8 4 6 8 5 4 6 6 3 9 5 8 7 9 10 5 6 8 8 11 10 8 8 6 10 14 10 7 7 7 6 7 5 8 8 5 5 nan
nan 17 19 3 8 13 16 5 8 8 3 7 9 4 5 6 8 7 7 5 7 8 6 9 9 10 9 10 9 9 10 10 10 9 6 9 10 8 10 8 5 5 10 9 7 8 8 8 nan
nan 12 12 3 8 8 12 5 9 7 8 3 7 8 4 5 8 7 9 12 9 9 9 8 9 10 10 9 10 11 9 7 10 10 12 11 10 10 8 9 11 13 10 12 8 8 6 8 nan
nan 10 4 9 9 4 11 12 7 5 6 5 5 8 6 8 8 8 8 8 8 9 13 10 9 8 8 10 10 8 8 8 8 8 9 9 6 7 11 12 11 11 11 11 10 10 11 11 nan
nan 12 12 11 5 11 9 8 19 9 3 7 9 5 6 7 7 8 9 10 9 10 7 8 8 8 9 11 11 11 12 10 8 7 7 7 6 9 10 11 10 9 9 9 9 9 10 12 nan
nan 8 11 10 4 10 6 5 12 13 8 9 6 6 7 5 7 8 9 10 9 11 9 7 7 8 9 8 11 13 13 13 10 6 7 10 10 9 9 9 9 14 14 9 8 9 10 10 nan
nan 10 9 10 12 13 10 13 8 9 15 16 5 4 5 7 7 7 11 8 10 10 9 7 7 8 10 8 7 8 9 12 11 10 10 9 9 7 4 6 9 9 9 9 10 10 9 7 nan
nan 4 8 11 8 7 14 12 12 18 16 7 5 7 6 7 8 8 9 9 9 9 8 7 7 10 8 8 8 6 8 9 8 10 8 6 8 7 5 5 8 7 6 8 9 9 9 9 nan
nan 3 3 4 5 5 15 11 8 9 7 8 8 5 5 7 8 10 9 10 9 10 8 8 7 10 9 9 8 10 12 9 7 7 8 9 8 8 9 9 8 6 8 9 8 10 11 11 nan
nan 16 2 4 11 17 9 8 10 7 5 5 5 5 6 7 8 9 10 10 9 9 9 10 8 8 11 9 9 11 9 9 9 8 8 8 9 8 7 10 11 10 12 10 10 9 10 9 nan
nan 9 17 17 15 11 8 10 9 12 6 6 4 5 6 8 9 9 10 9 10 9 8 8 8 10 10 6 9 10 9 9 8 8 8 10 10 9 11 10 9 10 10 11 10 9 10 9 nan
nan 5 9 11 8 9 11 10 12 10 7 6 6 9 8 9 9 9 10 9 10 9 9 7 7 10 7 7 11 10 9 9 10 9 9 10 11 11 11 11 11 11 9 8 8 10 10 10 nan
nan nan nan nan nan nan nan nan nan nan nan nan nan nan nan nan nan nan nan nan nan nan nan nan nan nan nan nan nan nan nan nan nan nan nan nan nan nan nan nan nan nan nan nan nan nan nan nan nan
CAPE
0 0 0 0 1 79 71 2 0 0 0 0 0 0 0 0 20 157 21 26 8 2 6 8 63 20 22 21 14 14 20 15 15 5 9 7 7 14 11 2 1 1 1 2 4 5 12 4 5
0 0 0 0 15 0 2 0 0 0 0 3 11 11 0 0 1 16 22 23 5 5 11 5 9 9 9 8 11 14 20 13 14 9 12 10 5 10 8 1 0 0 0 1 5 7 8 34 28
0 0 0 0 0 0 0 0 0 0 1 2 1 24 42 19 5 33 8 2 12 7 8 5 28 20 8 10 5 6 13 15 16 6 11 9 5 13 10 0 0 0 0 1 1 6 6 34 32
0 0 0 0 0 0 0 0 0 0 0 0 66 0 0 2 4 28 4 4 7 8 1 26 68 25 8 7 3 9 9 11 6 10 8 7 8 8 5 0 0 0 0 0 0 0 2 11 16
0 0 0 0 0 0 0 0 0 30 15 2 56 0 1 14 42 37 7 28 31 13 3 10 51 21 6 4 2 2 3 7 4 3 5 5 5 3 0 0 0 0 0 0 0 0 4 4 0
0 0 0 0 1 0 0 0 0 3 2 1 17 14 6 8 52 30 42 41 27 21 9 15 22 9 0 0 0 0 21 11 0 0 1 0 0 0 0 0 0 0 0 0 0 0 0 0 0
0 0 0 0 0 0 0 0 0 30 0 23 28 90 2 35 42 44 34 94 113 60 35 25 4 2 0 0 0 0 0 1 6 0 0 0 0 0 0 0 0 0 0 0 0 0 0 0 0
0 0 0 0 0 1 0 0 0 5 94 4 167 168 37 29 40 29 64 91 205 163 124 99 19 0 1 0 0 0 0 0 0 0 0 0 0 0 0 0 0 0 0 0 0 0 0 0 0
0 0 0 0 0 0 0 0 0 20 45 104 166 158 79 27 33 13 42 115 213 157 298 256 182 70 29 3 0 0 0 0 0 0 0 0 0 0 0 0 0 0 0 0 0 0 0 0 0
0 0 0 0 0 0 0 0 0 81 51 84 81 44 26 39 61 92 100 67 101 76 147 218 196 116 91 21 4 17 0 0 0 0 0 0 2 5 0 0 0 0 0 0 0 0 0 0 0
0 0 0 0 0 0 2 64 90 149 149 128 34 24 29 43 140 140 166 150 164 122 131 101 269 321 175 137 20 51 24 19 11 0 0 0 11 0 0 0 0 0 0 0 0 0 0 0 0
0 0 0 0 0 0 16 43 52 187 123 84 75 93 70 111 191 124 150 99 50 82 108 62 101 358 262 215 104 4 0 0 0 5 0 0 2 0 0 4 0 0 0 0 0 0 0 0 0
0 0 0 0 0 7 13 27 25 27 50 66 83 117 156 174 126 152 181 153 173 237 258 286 293 298 366 164 53 1 0 0 2 0 1 0 1 21 46 17 8 34 23 20 2 0 0 0 0
0 0 0 0 8 16 4 4 23 40 108 134 180 169 164 166 202 219 255 215 293 230 295 370 374 309 166 150 129 257 82 133 12 0 27 17 0 30 63 71 41 26 21 21 42 12 20 2 0
0 0 0 0 0 1 0 8 26 106 154 138 156 143 157 137 129 155 198 314 356 237 248 553 398 395 192 277 251 144 108 62 70 39 87 75 95 106 79 89 79 99 67 53 80 66 36 35 30
0 0 0 0 0 0 5 29 57 106 100 88 59 28 20 3 1 0 0 0 0 0 23 8 0 228 287 276 150 130 298 72 105 112 86 168 137 112 62 64 104 99 80 73 71 20 39 43 41
0 0 1 10 0 0 0 89 56 68 54 50 35 15 7 1 0 0 0 0 0 0 0 20 54 55 69 268 208 63 185 232 81 103 75 159 194 128 53 95 52 112 125 59 61 61 34 25 30
0 0 0 28 0 1 18 80 50 34 29 8 13 7 1 0 0 0 0 0 0 4 7 8 63 254 253 167 176 183 164 76 103 104 98 121 217 113 115 38 61 106 93 133 76 85 47 57 42
0 12 6 29 8 24 26 78 13 13 12 1 7 4 2 0 0 0 0 7 7 13 14 17 38 132 144 184 197 148 121 164 171 153 69 117 106 136 129 38 31 61 47 40 51 25 60 67 48
0 6 80 40 8 0 7 21 8 3 2 9 13 10 0 0 4 0 0 0 1 11 40 36 21 7 2 0 0 0 1 0 0 1 26 107 124 75 104 53 75 35 56 52 37 31 62 52 51
2 14 44 58 0 0 2 14 0 2 6 0 0 0 0 4 0 0 1 10 14 7 6 0 0 0 0 0 0 0 0 0 0 0 0 0 0 0 0 0 0 0 1 0 0 0 27 40 61
1 0 0 5 0 0 0 55 13 0 0 1 7 4 15 0 0 0 0 0 0 0 0 0 0 0 0 0 0 0 0 0 0 0 0 0 0 0 0 0 0 0 0 0 0 0 0 24 44
0 0 0 0 0 0 23 20 141 2 4 0 2 8 0 0 0 0 0 0 0 0 0 0 0 0 0 0 0 0 0 0 0 0 0 0 0 0 0 0 0 0 0 0 0 1 4 10 10
0 0 0 0 0 6 14 54 209 104 24 3 1 0 0 0 0 0 0 0 0 0 0 0 0 0 0 0 0 0 0 0 0 0 0 0 0 0 0 0 0 0 0 0 0 0 0 0 0
0 0 3 15 43 115 77 74 217 8 1 0 0 0 0 0 0 0 0 0 0 0 0 0 0 0 1 0 0 0 0 0 0 0 0 0 0 0 1 0 0 0 0 3 7 3 5 5 0
0 0 74 11 87 194 68 39 57 0 0 0 0 0 0 0 0 0 0 0 0 0 0 0 0 1 0 0 0 0 9 1 3 4 2 4 1 9 9 2 0 0 2 1 4 12 6 6 16
0 8 1 30 30 122 129 7 2 0 0 0 0 0 4 0 0 0 0 0 0 0 0 0 0 0 0 0 1 4 4 1 3 1 5 7 10 12 14 15 13 6 10 9 4 11 19 10 0
0 15 72 56 69 26 83 124 45 1 3 5 0 2 4 0 0 0 0 0 0 0 0 0 0 0 0 0 4 8 15 18 14 5 12 17 23 35 37 21 5 3 2 5 7 12 4 14 17
2 0 53 129 16 159 129 134 15 3 2 0 0 10 6 1 0 0 0 0 0 0 0 0 0 3 0 0 1 7 10 9 15 8 17 15 23 15 25 17 12 16 7 2 0 5 10 19 9
22 104 49 22 2 94 255 198 0 4 0 0 0 18 0 0 0 0 0 0 0 0 0 0 0 1 2 1 5 5 11 8 15 9 5 14 25 15 32 16 15 17 12 13 7 2 2 0 0